Location: Koszewko
(53.2876°N, 14.9061°E)
Time: 21:17:29
(UTC+00:00)

FALCON 9 DEB - Pass Details

Date: 03 March 2021
Orbit: 367 x 387 km, 53.0° (Epoch: 11 April)

Event Time Altitude Azimuth Distance (km) Brightness Sun altitude
Rises 17:58:39 0° 271° (W) 2,287 8.9 -12.2°
Reaches altitude 10° 18:00:43 10° 271° (W) 1,430 7.3 -12.5°
Maximum altitude 18:03:55 87° 183° (S) 397 2.8 -12.9°
Enters shadow 18:05:34 26° 94° (E) 809 3.9 -13.2°
